User: anonymous   Login
Location: Unspecified
(0.0000°N, 0.0000°E)
Time: 23:16:56
(UTC+00:00)
Language:

STARLINK-4674 - Orbit

View from above orbital plane
View from above orbital plane
View from above satellite
View from above satellite

Ground track
Ground track

The orbit is defined by the following mean orbital elements,

1 53591U          26145.33745522 +.00000000 +00000-0 -90412-4 0 00006
2 53591  53.2151 260.2054 0001158  92.7075 267.4050 15.08841555    02
Epoch (UTC): 25 May 2026 08:05:56
Eccentricity: 0.0001158
inclination: 53.2151°
perigee height: 539 km
apogee height: 541 km
right ascension of ascending node: 260.2054°
argument of perigee: 92.7075°
revolutions per day: 15.08841555
mean anomaly at epoch: 267.4050°

The dashed part of the orbit path shows where the satellite is in the earth's shadow,  

DLR